| time (UTC) | temp F | wind direction | speed MPH | gust MPH | rain 1hr in | rain 24hr in | rain mn in | humidity % | barometer mb |
| 20260831050526 | 78 | 168 | 0.0 | 1.0 | 0.00 | 0.00 | 0.00 | 64 | 1036.1 |
| 20260831050025 | 78 | 164 | 0.0 | 1.0 | 0.00 | 0.00 | 0.00 | 64 | 1035.0 |
| 20260831045533 | 78 | 166 | 0.0 | 1.0 | 0.00 | 0.00 | 0.00 | 64 | 1034.4 |
| 20260831045025 | 78 | 159 | 0.0 | 1.0 | 0.00 | 0.00 | 0.00 | 63 | 1034.2 |
| 20260831044543 | 78 | 158 | 0.0 | 1.0 | 0.00 | 0.00 | 0.00 | 63 | 1033.7 |
| 20260831044037 | 78 | 142 | 0.0 | 2.0 | 0.00 | 0.00 | 0.00 | 63 | 1033.4 |
| 20260831043525 | 79 | 170 | 0.0 | 2.0 | 0.00 | 0.00 | 0.00 | 63 | 1032.6 |
| 20260831043023 | 79 | 182 | 1.0 | 2.0 | 0.00 | 0.00 | 0.00 | 63 | 1032.5 |
| 20260831042543 | 79 | 170 | 1.0 | 2.0 | 0.00 | 0.00 | 0.00 | 63 | 1032.5 |
| 20260831042022 | 79 | 188 | 0.0 | 1.0 | 0.00 | 0.00 | 0.00 | 62 | 1031.1 |
| 20260831041522 | 79 | 172 | 0.0 | 2.0 | 0.00 | 0.00 | 0.00 | 62 | 1030.5 |
| 20260831041023 | 79 | 207 | 0.0 | 1.0 | 0.00 | 0.00 | 0.00 | 62 | 1030.0 |
| 20260831040522 | 79 | 220 | 1.0 | 2.0 | 0.00 | 0.00 | 0.00 | 62 | 1028.5 |
| 20260831040044 | 79 | 210 | 1.0 | 1.0 | 0.00 | 0.00 | 0.00 | 61 | 1028.2 |
| 20260831035545 | 79 | 219 | 1.0 | 2.0 | 0.00 | 0.00 | 0.00 | 61 | 1027.1 |
| 20260831035200 | 79 | 190 | 1.0 | 2.0 | 0.00 | 0.00 | 0.00 | 61 | 1027.2 |
| 20260831034521 | 79 | 204 | 1.0 | 1.0 | 0.00 | 0.00 | 0.00 | 61 | 1026.2 |
| 20260831034027 | 79 | 191 | 1.0 | 2.0 | 0.00 | 0.00 | 0.00 | 61 | 1026.0 |
| 20260831033524 | 80 | 206 | 1.0 | 4.0 | 0.00 | 0.00 | 0.00 | 61 | 1025.7 |
| 20260831033036 | 80 | 221 | 1.0 | 2.0 | 0.00 | 0.00 | 0.00 | 60 | 1024.9 |
| 20260831032526 | 80 | 229 | 1.0 | 2.0 | 0.00 | 0.00 | 0.00 | 60 | 1024.0 |
| 20260831032029 | 80 | 229 | 1.0 | 2.0 | 0.00 | 0.00 | 0.00 | 60 | 1023.7 |
| 20260831031524 | 80 | 224 | 1.0 | 2.0 | 0.00 | 0.00 | 0.00 | 59 | 1023.3 |
| 20260831031029 | 80 | 228 | 1.0 | 2.0 | 0.00 | 0.00 | 0.00 | 60 | 1023.3 |
| 20260831030521 | 80 | 224 | 1.0 | 2.0 | 0.00 | 0.00 | 0.00 | 59 | 1022.9 |
| 20260831030023 | 81 | 196 | 1.0 | 2.0 | 0.00 | 0.00 | 0.00 | 59 | 1022.9 |
| 20260831025521 | 81 | 222 | 1.0 | 2.0 | 0.00 | 0.00 | 0.00 | 59 | 1022.9 |
| 20260831025022 | 81 | 217 | 1.0 | 2.0 | 0.00 | 0.00 | 0.00 | 59 | 1022.2 |
| 20260831024526 | 81 | 204 | 1.0 | 2.0 | 0.00 | 0.00 | 0.00 | 59 | 1021.4 |
| 20260831024027 | 81 | 226 | 1.0 | 2.0 | 0.00 | 0.00 | 0.00 | 58 | 1020.2 |
| 20260831023545 | 81 | 228 | 1.0 | 2.0 | 0.00 | 0.00 | 0.00 | 58 | 1020.0 |
| 20260831023044 | 82 | 224 | 1.0 | 2.0 | 0.00 | 0.00 | 0.00 | 58 | 1019.7 |
| 20260831022527 | 82 | 221 | 1.0 | 2.0 | 0.00 | 0.00 | 0.00 | 57 | 1019.0 |
| 20260831022030 | 82 | 220 | 1.0 | 2.0 | 0.00 | 0.00 | 0.00 | 57 | 1018.7 |
| 20260831021522 | 82 | 211 | 1.0 | 2.0 | 0.00 | 0.00 | 0.00 | 57 | 1018.2 |
| 20260831021022 | 83 | 227 | 1.0 | 3.0 | 0.00 | 0.00 | 0.00 | 56 | 1017.3 |
| 20260831020524 | 83 | 226 | 1.0 | 2.0 | 0.00 | 0.00 | 0.00 | 56 | 1017.1 |
| 20260831020022 | 83 | 229 | 1.0 | 2.0 | 0.00 | 0.00 | 0.00 | 55 | 1016.3 |
| 20260831015523 | 83 | 223 | 1.0 | 2.0 | 0.00 | 0.00 | 0.00 | 55 | 1016.3 |
| 20260831015023 | 83 | 233 | 1.0 | 2.0 | 0.00 | 0.00 | 0.00 | 55 | 1015.8 |
| 20260831014522 | 84 | 235 | 1.0 | 2.0 | 0.00 | 0.00 | 0.00 | 55 | 1015.6 |
| 20260831014044 | 84 | 212 | 1.0 | 2.0 | 0.00 | 0.00 | 0.00 | 54 | 1015.4 |
| 20260831013523 | 84 | 224 | 1.0 | 2.0 | 0.00 | 0.00 | 0.00 | 54 | 1015.1 |
| 20260831013022 | 84 | 225 | 1.0 | 2.0 | 0.00 | 0.00 | 0.00 | 53 | 1014.7 |
| 20260831012527 | 85 | 249 | 1.0 | 3.0 | 0.00 | 0.00 | 0.00 | 52 | 1014.3 |
| 20260831012022 | 85 | 223 | 1.0 | 2.0 | 0.00 | 0.00 | 0.00 | 52 | 1014.1 |
| 20260831011523 | 85 | 234 | 1.0 | 2.0 | 0.00 | 0.00 | 0.00 | 52 | 1013.8 |
| 20260831011026 | 85 | 230 | 1.0 | 2.0 | 0.00 | 0.00 | 0.00 | 51 | 1013.6 |
| 20260831010526 | 86 | 232 | 1.0 | 2.0 | 0.00 | 0.00 | 0.00 | 50 | 1013.4 |
| 20260831010021 | 86 | 204 | 1.0 | 2.0 | 0.00 | 0.00 | 0.00 | 50 | 1013.1 |
| 20260831005529 | 86 | 237 | 1.0 | 3.0 | 0.00 | 0.00 | 0.00 | 49 | 1013.0 |
| 20260831005028 | 87 | 232 | 1.0 | 2.0 | 0.00 | 0.00 | 0.00 | 48 | 1012.9 |
| 20260831004522 | 87 | 236 | 1.0 | 2.0 | 0.00 | 0.00 | 0.00 | 48 | 1012.8 |
| 20260831004047 | 87 | 223 | 1.0 | 2.0 | 0.00 | 0.00 | 0.00 | 47 | 1012.7 |
| 20260831003523 | 87 | 225 | 1.0 | 2.0 | 0.00 | 0.00 | 0.00 | 47 | 1012.6 |
| 20260831003023 | 88 | 247 | 1.0 | 3.0 | 0.00 | 0.00 | 0.00 | 46 | 1012.4 |
| 20260831002523 | 88 | 223 | 1.0 | 3.0 | 0.00 | 0.00 | 0.00 | 46 | 1012.4 |
| 20260831002024 | 88 | 217 | 1.0 | 3.0 | 0.00 | 0.00 | 0.00 | 46 | 1012.3 |
| 20260831001520 | 88 | 219 | 1.0 | 2.0 | 0.00 | 0.00 | 0.00 | 45 | 1012.2 |
| 20260831001028 | 89 | 180 | 2.0 | 4.0 | 0.00 | 0.00 | 0.00 | 44 | 1012.1 |
| 20260831000521 | 89 | 220 | 1.0 | 2.0 | 0.00 | 0.00 | 0.00 | 44 | 1012.0 |
| 20260831000029 | 89 | 186 | 1.0 | 3.0 | 0.00 | 0.00 | 0.00 | 43 | 1011.9 |
| 20260830235525 | 90 | 209 | 1.0 | 2.0 | 0.00 | 0.00 | 0.00 | 43 | 1011.7 |
| 20260830235029 | 90 | 145 | 1.0 | 3.0 | 0.00 | 0.00 | 0.00 | 42 | 1011.7 |
| 20260830234533 | 90 | 196 | 1.0 | 5.0 | 0.00 | 0.00 | 0.00 | 41 | 1011.4 |
| 20260830234044 | 91 | 220 | 1.0 | 3.0 | 0.00 | 0.00 | 0.00 | 40 | 1011.3 |
| 20260830233527 | 91 | 231 | 1.0 | 2.0 | 0.00 | 0.00 | 0.00 | 40 | 1011.2 |
| 20260830233023 | 91 | 202 | 1.0 | 3.0 | 0.00 | 0.00 | 0.00 | 39 | 1011.0 |
| 20260830232542 | 92 | 223 | 1.0 | 3.0 | 0.00 | 0.00 | 0.00 | 38 | 1010.8 |
| 20260830232021 | 92 | 212 | 1.0 | 4.0 | 0.00 | 0.00 | 0.00 | 37 | 1010.6 |
| 20260830231522 | 92 | 184 | 1.0 | 5.0 | 0.00 | 0.00 | 0.00 | 36 | 1010.4 |
| 20260830231024 | 92 | 211 | 1.0 | 3.0 | 0.00 | 0.00 | 0.00 | 37 | 1010.4 |
| 20260830230522 | 93 | 202 | 1.0 | 2.0 | 0.00 | 0.00 | 0.00 | 36 | 1010.4 |
| 20260830230028 | 93 | 217 | 1.0 | 4.0 | 0.00 | 0.00 | 0.00 | 36 | 1010.3 |
| 20260830225533 | 93 | 239 | 1.0 | 4.0 | 0.00 | 0.00 | 0.00 | 35 | 1010.2 |
| 20260830225026 | 93 | 248 | 1.0 | 4.0 | 0.00 | 0.00 | 0.00 | 36 | 1010.2 |
| 20260830224523 | 93 | 197 | 1.0 | 3.0 | 0.00 | 0.00 | 0.00 | 36 | 1010.3 |
| 20260830224023 | 93 | 174 | 1.0 | 3.0 | 0.00 | 0.00 | 0.00 | 36 | 1010.2 |
| 20260830223522 | 94 | 142 | 1.0 | 3.0 | 0.00 | 0.00 | 0.00 | 37 | 1010.5 |
| 20260830223023 | 94 | 236 | 1.0 | 2.0 | 0.00 | 0.00 | 0.00 | 36 | 1010.3 |
| 20260830222534 | 94 | 240 | 1.0 | 4.0 | 0.00 | 0.00 | 0.00 | 36 | 1010.3 |
| 20260830222042 | 94 | 182 | 1.0 | 2.0 | 0.00 | 0.00 | 0.00 | 35 | 1010.1 |
| 20260830221546 | 95 | 229 | 1.0 | 3.0 | 0.00 | 0.00 | 0.00 | 36 | 1010.2 |
| 20260830221028 | 95 | 250 | 1.0 | 3.0 | 0.00 | 0.00 | 0.00 | 34 | 1009.9 |
| 20260830220523 | 95 | 219 | 0.0 | 2.0 | 0.00 | 0.00 | 0.00 | 33 | 1009.7 |
| 20260830220026 | 95 | 180 | 1.0 | 2.0 | 0.00 | 0.00 | 0.00 | 32 | 1009.4 |
| 20260830215526 | 95 | 197 | 1.0 | 2.0 | 0.00 | 0.00 | 0.00 | 31 | 1009.3 |
| 20260830215024 | 96 | 162 | 1.0 | 4.0 | 0.00 | 0.00 | 0.00 | 32 | 1009.3 |
| 20260830214545 | 96 | 155 | 1.0 | 5.0 | 0.00 | 0.00 | 0.00 | 31 | 1009.2 |
| 20260830214023 | 96 | 163 | 1.0 | 5.0 | 0.00 | 0.00 | 0.00 | 30 | 1009.0 |
| 20260830213524 | 96 | 180 | 1.0 | 3.0 | 0.00 | 0.00 | 0.00 | 30 | 1009.2 |
| 20260830213031 | 96 | 154 | 1.0 | 3.0 | 0.00 | 0.00 | 0.00 | 31 | 1009.2 |
| 20260830212523 | 96 | 135 | 1.0 | 3.0 | 0.00 | 0.00 | 0.00 | 31 | 1009.1 |
| 20260830212020 | 96 | 144 | 1.0 | 4.0 | 0.00 | 0.00 | 0.00 | 30 | 1009.0 |
| 20260830211520 | 96 | 178 | 1.0 | 2.0 | 0.00 | 0.00 | 0.00 | 30 | 1008.9 |
| 20260830211028 | 95 | 161 | 1.0 | 3.0 | 0.00 | 0.00 | 0.00 | 31 | 1009.2 |
| 20260830210521 | 95 | 155 | 1.0 | 2.0 | 0.00 | 0.00 | 0.00 | 30 | 1009.2 |
| 20260830210021 | 95 | 170 | 2.0 | 5.0 | 0.00 | 0.00 | 0.00 | 30 | 1009.2 |
| 20260830205521 | 95 | 138 | 2.0 | 5.0 | 0.00 | 0.00 | 0.00 | 30 | 1009.3 |
| 20260830205044 | 95 | 193 | 1.0 | 3.0 | 0.00 | 0.00 | 0.00 | 30 | 1009.2 |
| 20260830204545 | 95 | 139 | 1.0 | 3.0 | 0.00 | 0.00 | 0.00 | 31 | 1009.5 |
| 20260830204025 | 95 | 161 | 1.0 | 4.0 | 0.00 | 0.00 | 0.00 | 30 | 1009.3 |
| 20260830203522 | 96 | 139 | 2.0 | 5.0 | 0.00 | 0.00 | 0.00 | 30 | 1009.2 |
| 20260830203048 | 96 | 156 | 1.0 | 3.0 | 0.00 | 0.00 | 0.00 | 30 | 1009.3 |
| 20260830202523 | 96 | 163 | 2.0 | 6.0 | 0.00 | 0.00 | 0.00 | 30 | 1009.3 |
| 20260830202021 | 96 | 144 | 2.0 | 5.0 | 0.00 | 0.00 | 0.00 | 30 | 1009.3 |
| 20260830201522 | 95 | 200 | 1.0 | 5.0 | 0.00 | 0.00 | 0.00 | 30 | 1009.4 |
| 20260830201024 | 95 | 158 | 2.0 | 5.0 | 0.00 | 0.00 | 0.00 | 30 | 1009.7 |
| 20260830200521 | 96 | 173 | 1.0 | 4.0 | 0.00 | 0.00 | 0.00 | 30 | 1009.6 |
| 20260830200105 | 95 | 137 | 1.0 | 4.0 | 0.00 | 0.00 | 0.00 | 30 | 1009.5 |
| 20260830195522 | 95 | 152 | 1.0 | 4.0 | 0.00 | 0.00 | 0.00 | 31 | 1009.9 |
| 20260830195025 | 95 | 159 | 1.0 | 3.0 | 0.00 | 0.00 | 0.00 | 30 | 1009.5 |
| 20260830194522 | 95 | 82 | 1.0 | 3.0 | 0.00 | 0.00 | 0.00 | 30 | 1009.6 |
| 20260830194024 | 95 | 291 | 1.0 | 2.0 | 0.00 | 0.00 | 0.00 | 30 | 1009.6 |
| 20260830193522 | 95 | 146 | 2.0 | 5.0 | 0.00 | 0.00 | 0.00 | 32 | 1010.2 |
| 20260830193025 | 95 | 142 | 2.0 | 4.0 | 0.00 | 0.00 | 0.00 | 32 | 1010.3 |
| 20260830192525 | 95 | 180 | 1.0 | 3.0 | 0.00 | 0.00 | 0.00 | 31 | 1010.0 |
| 20260830192023 | 95 | 148 | 1.0 | 4.0 | 0.00 | 0.00 | 0.00 | 31 | 1009.8 |
| 20260830191546 | 94 | 135 | 1.0 | 4.0 | 0.00 | 0.00 | 0.00 | 33 | 1010.5 |
| 20260830191024 | 94 | 141 | 2.0 | 4.0 | 0.00 | 0.00 | 0.00 | 33 | 1010.6 |
| 20260830190543 | 94 | 143 | 2.0 | 6.0 | 0.00 | 0.00 | 0.00 | 32 | 1010.3 |
| 20260830190046 | 94 | 296 | 1.0 | 4.0 | 0.00 | 0.00 | 0.00 | 33 | 1010.6 |
| 20260830185524 | 94 | 258 | 1.0 | 3.0 | 0.00 | 0.00 | 0.00 | 33 | 1010.3 |
| 20260830185104 | 94 | 206 | 1.0 | 2.0 | 0.00 | 0.00 | 0.00 | 33 | 1010.8 |
| 20260830184608 | 94 | 186 | 1.0 | 3.0 | 0.00 | 0.00 | 0.00 | 34 | 1010.7 |
| 20260830184104 | 94 | 134 | 2.0 | 4.0 | 0.00 | 0.00 | 0.00 | 34 | 1010.7 |
| 20260830183530 | 94 | 169 | 1.0 | 6.0 | 0.00 | 0.00 | 0.00 | 34 | 1010.5 |
| 20260830183041 | 95 | 152 | 2.0 | 4.0 | 0.00 | 0.00 | 0.00 | 34 | 1010.5 |
| 20260830182530 | 95 | 195 | 1.0 | 3.0 | 0.00 | 0.00 | 0.00 | 33 | 1010.5 |
| 20260830182021 | 95 | 166 | 1.0 | 5.0 | 0.00 | 0.00 | 0.00 | 34 | 1010.7 |
| 20260830181521 | 95 | 182 | 1.0 | 3.0 | 0.00 | 0.00 | 0.00 | 33 | 1010.5 |
| 20260830181103 | 95 | 157 | 2.0 | 5.0 | 0.00 | 0.00 | 0.00 | 31 | 1010.1 |
| 20260830180531 | 95 | 142 | 2.0 | 3.0 | 0.00 | 0.00 | 0.00 | 33 | 1010.3 |
| 20260830180031 | 95 | 145 | 1.0 | 5.0 | 0.00 | 0.00 | 0.00 | 32 | 1010.2 |
| 20260830175525 | 94 | 160 | 2.0 | 5.0 | 0.00 | 0.00 | 0.00 | 33 | 1010.7 |
| 20260830175025 | 94 | 172 | 1.0 | 3.0 | 0.00 | 0.00 | 0.00 | 33 | 1010.4 |
| 20260830174542 | 94 | 118 | 2.0 | 5.0 | 0.00 | 0.00 | 0.00 | 33 | 1010.7 |
| 20260830174042 | 93 | 156 | 2.0 | 4.0 | 0.00 | 0.00 | 0.00 | 33 | 1010.6 |
| 20260830173522 | 93 | 158 | 1.0 | 3.0 | 0.00 | 0.00 | 0.00 | 33 | 1010.7 |
| 20260830173021 | 92 | 168 | 2.0 | 3.0 | 0.00 | 0.00 | 0.00 | 33 | 1010.8 |
| 20260830172521 | 92 | 149 | 2.0 | 5.0 | 0.00 | 0.00 | 0.00 | 34 | 1010.8 |
| 20260830172022 | 92 | 161 | 2.0 | 4.0 | 0.00 | 0.00 | 0.00 | 35 | 1011.1 |
| 20260830171521 | 92 | 112 | 1.0 | 3.0 | 0.00 | 0.00 | 0.00 | 36 | 1011.3 |
| 20260830171024 | 92 | 116 | 2.0 | 3.0 | 0.00 | 0.00 | 0.00 | 36 | 1011.4 |
| 20260830170525 | 91 | 118 | 1.0 | 3.0 | 0.00 | 0.00 | 0.00 | 37 | 1011.7 |
| 20260830170022 | 92 | 111 | 2.0 | 5.0 | 0.00 | 0.00 | 0.00 | 37 | 1011.6 |
| 20260830165523 | 92 | 133 | 2.0 | 5.0 | 0.00 | 0.00 | 0.00 | 37 | 1011.5 |
| 20260830165022 | 91 | 142 | 2.0 | 4.0 | 0.00 | 0.00 | 0.00 | 38 | 1012.1 |
| 20260830164523 | 91 | 129 | 2.0 | 5.0 | 0.00 | 0.00 | 0.00 | 37 | 1011.7 |
| 20260830164023 | 90 | 134 | 2.0 | 5.0 | 0.00 | 0.00 | 0.00 | 38 | 1011.9 |
| 20260830163523 | 90 | 123 | 2.0 | 5.0 | 0.00 | 0.00 | 0.00 | 37 | 1011.6 |
| 20260830163023 | 90 | 119 | 2.0 | 6.0 | 0.00 | 0.00 | 0.00 | 38 | 1011.8 |
| 20260830162524 | 90 | 157 | 2.0 | 3.0 | 0.00 | 0.00 | 0.00 | 38 | 1011.8 |
| 20260830162023 | 90 | 148 | 2.0 | 6.0 | 0.00 | 0.00 | 0.00 | 38 | 1011.7 |
| 20260830161524 | 90 | 143 | 2.0 | 6.0 | 0.00 | 0.00 | 0.00 | 37 | 1011.5 |
| 20260830161023 | 89 | 198 | 2.0 | 4.0 | 0.00 | 0.00 | 0.00 | 39 | 1011.7 |
| 20260830160526 | 89 | 143 | 2.0 | 4.0 | 0.00 | 0.00 | 0.00 | 40 | 1011.7 |
| 20260830160029 | 88 | 175 | 2.0 | 4.0 | 0.00 | 0.00 | 0.00 | 40 | 1011.8 |
| 20260830155523 | 88 | 147 | 2.0 | 4.0 | 0.00 | 0.00 | 0.00 | 41 | 1011.9 |
| 20260830155023 | 87 | 155 | 3.0 | 6.0 | 0.00 | 0.00 | 0.00 | 43 | 1011.9 |
| 20260830154523 | 87 | 139 | 2.0 | 6.0 | 0.00 | 0.00 | 0.00 | 44 | 1012.0 |
| 20260830154020 | 86 | 140 | 2.0 | 5.0 | 0.00 | 0.00 | 0.00 | 45 | 1012.3 |
| 20260830153522 | 86 | 153 | 2.0 | 8.0 | 0.00 | 0.00 | 0.00 | 45 | 1012.2 |
| 20260830153020 | 86 | 147 | 2.0 | 5.0 | 0.00 | 0.00 | 0.00 | 47 | 1012.5 |
| 20260830152521 | 85 | 134 | 2.0 | 5.0 | 0.00 | 0.00 | 0.00 | 48 | 1012.5 |
| 20260830152050 | 85 | 134 | 2.0 | 6.0 | 0.00 | 0.00 | 0.00 | 48 | 1012.4 |
| 20260830151525 | 85 | 156 | 2.0 | 4.0 | 0.00 | 0.00 | 0.00 | 49 | 1012.6 |
| 20260830151025 | 84 | 124 | 2.0 | 5.0 | 0.00 | 0.00 | 0.00 | 49 | 1012.7 |
| 20260830150524 | 84 | 148 | 2.0 | 4.0 | 0.00 | 0.00 | 0.00 | 51 | 1012.9 |
| 20260830150020 | 83 | 161 | 2.0 | 3.0 | 0.00 | 0.00 | 0.00 | 51 | 1012.9 |
| 20260830145522 | 83 | 147 | 2.0 | 4.0 | 0.00 | 0.00 | 0.00 | 53 | 1013.1 |
| 20260830145022 | 82 | 139 | 2.0 | 6.0 | 0.00 | 0.00 | 0.00 | 53 | 1013.3 |
| 20260830144521 | 82 | 144 | 2.0 | 3.0 | 0.00 | 0.00 | 0.00 | 55 | 1013.7 |
| 20260830144033 | 81 | 163 | 2.0 | 5.0 | 0.00 | 0.00 | 0.00 | 56 | 1014.0 |
| 20260830143525 | 81 | 170 | 2.0 | 5.0 | 0.00 | 0.00 | 0.00 | 57 | 1014.7 |
| 20260830143034 | 80 | 141 | 2.0 | 3.0 | 0.00 | 0.00 | 0.00 | 58 | 1015.8 |
| 20260830142534 | 79 | 100 | 2.0 | 3.0 | 0.00 | 0.00 | 0.00 | 60 | 1018.8 |
| 20260830142036 | 79 | 160 | 1.0 | 3.0 | 0.00 | 0.00 | 0.00 | 62 | 1022.0 |
| 20260830141553 | 78 | 129 | 2.0 | 3.0 | 0.00 | 0.00 | 0.00 | 62 | 1024.5 |
| 20260830141048 | 78 | 161 | 2.0 | 3.0 | 0.00 | 0.00 | 0.00 | 63 | 1028.3 |
| 20260830140533 | 77 | 155 | 1.0 | 3.0 | 0.00 | 0.00 | 0.00 | 64 | 1030.0 |
| 20260830140036 | 77 | 176 | 1.0 | 2.0 | 0.00 | 0.00 | 0.00 | 65 | 1036.0 |
| 20260830135534 | 76 | 129 | 1.0 | 3.0 | 0.00 | 0.00 | 0.00 | 66 | 1041.0 |
| 20260830135034 | 76 | 141 | 2.0 | 3.0 | 0.00 | 0.00 | 0.00 | 67 | 1046.0 |
| 20260830134637 | 75 | 120 | 2.0 | 3.0 | 0.00 | 0.00 | 0.00 | 67 | 1046.0 |
| 20260830134036 | 75 | 113 | 2.0 | 3.0 | 0.00 | 0.00 | 0.00 | 68 | 953.4 |
| 20260830133549 | 75 | 132 | 2.0 | 3.0 | 0.00 | 0.00 | 0.00 | 69 | 857.9 |
| 20260830133049 | 74 | 117 | 1.0 | 3.0 | 0.00 | 0.00 | 0.00 | 70 | 857.7 |
| 20260830132534 | 74 | 124 | 1.0 | 2.0 | 0.00 | 0.00 | 0.00 | 70 | 857.7 |
| 20260830132034 | 73 | 112 | 1.0 | 2.0 | 0.00 | 0.00 | 0.00 | 71 | 857.7 |
| 20260830131536 | 73 | 130 | 1.0 | 2.0 | 0.00 | 0.00 | 0.00 | 72 | 857.6 |
| 20260830131036 | 73 | 116 | 1.0 | 2.0 | 0.00 | 0.00 | 0.00 | 73 | 857.6 |
| 20260830130535 | 72 | 123 | 1.0 | 2.0 | 0.00 | 0.00 | 0.00 | 74 | 857.6 |
| 20260830130036 | 72 | 74 | 1.0 | 3.0 | 0.00 | 0.00 | 0.00 | 74 | 857.6 |
| 20260830125535 | 72 | 113 | 1.0 | 2.0 | 0.00 | 0.00 | 0.00 | 75 | 857.5 |
| 20260830125022 | 72 | 122 | 1.0 | 2.0 | 0.00 | 0.00 | 0.00 | 75 | 857.5 |
| 20260830124544 | 71 | 107 | 1.0 | 2.0 | 0.00 | 0.00 | 0.00 | 75 | 857.5 |
| 20260830124037 | 71 | 93 | 1.0 | 2.0 | 0.00 | 0.00 | 0.00 | 75 | 857.5 |
| 20260830123523 | 71 | 125 | 1.0 | 1.0 | 0.00 | 0.00 | 0.00 | 76 | 857.5 |
| 20260830123023 | 71 | 139 | 1.0 | 2.0 | 0.00 | 0.00 | 0.00 | 76 | 857.5 |
| 20260830122601 | 71 | 165 | 1.0 | 1.0 | 0.00 | 0.00 | 0.00 | 77 | 857.5 |
| 20260830122036 | 71 | 168 | 1.0 | 1.0 | 0.00 | 0.00 | 0.00 | 77 | 857.5 |
| 20260830121538 | 71 | 111 | 1.0 | 1.0 | 0.00 | 0.00 | 0.00 | 77 | 857.5 |
| 20260830121035 | 70 | 173 | 1.0 | 2.0 | 0.00 | 0.00 | 0.00 | 77 | 857.5 |
| 20260830120556 | 70 | 128 | 1.0 | 2.0 | 0.00 | 0.00 | 0.00 | 78 | 857.4 |
| 20260830120035 | 70 | 123 | 1.0 | 2.0 | 0.00 | 0.00 | 0.00 | 79 | 857.4 |
| 20260830115537 | 70 | 170 | 1.0 | 1.0 | 0.00 | 0.00 | 0.00 | 79 | 857.4 |
| 20260830115024 | 70 | 151 | 1.0 | 1.0 | 0.00 | 0.00 | 0.00 | 80 | 857.4 |
| 20260830114522 | 69 | 91 | 1.0 | 1.0 | 0.00 | 0.00 | 0.00 | 80 | 857.4 |
| 20260830114023 | 69 | 128 | 1.0 | 1.0 | 0.00 | 0.00 | 0.00 | 80 | 857.4 |
| 20260830113540 | 69 | 98 | 1.0 | 1.0 | 0.00 | 0.00 | 0.00 | 81 | 857.4 |
| 20260830113022 | 69 | 175 | 1.0 | 1.0 | 0.00 | 0.00 | 0.00 | 80 | 857.4 |
| 20260830112539 | 70 | 142 | 1.0 | 1.0 | 0.00 | 0.00 | 0.00 | 80 | 857.4 |
| 20260830112053 | 70 | 120 | 1.0 | 1.0 | 0.00 | 0.00 | 0.00 | 81 | 857.4 |
| 20260830111521 | 70 | 95 | 1.0 | 2.0 | 0.00 | 0.00 | 0.00 | 80 | 857.4 |
| 20260830111037 | 70 | 162 | 1.0 | 2.0 | 0.00 | 0.00 | 0.00 | 80 | 857.4 |
| 20260830110522 | 70 | 178 | 1.0 | 2.0 | 0.00 | 0.00 | 0.00 | 80 | 857.4 |
| 20260830110022 | 70 | 116 | 1.0 | 2.0 | 0.00 | 0.00 | 0.00 | 81 | 857.4 |
| 20260830105523 | 70 | 188 | 1.0 | 1.0 | 0.00 | 0.00 | 0.00 | 81 | 857.4 |
| 20260830105042 | 70 | 123 | 1.0 | 1.0 | 0.00 | 0.00 | 0.00 | 81 | 857.4 |
| 20260830104521 | 70 | 149 | 1.0 | 1.0 | 0.00 | 0.00 | 0.00 | 81 | 857.4 |
| 20260830104041 | 70 | 203 | 1.0 | 1.0 | 0.00 | 0.00 | 0.00 | 80 | 857.4 |
| 20260830103524 | 70 | 139 | 1.0 | 1.0 | 0.00 | 0.00 | 0.00 | 80 | 857.4 |
| 20260830103025 | 70 | 137 | 1.0 | 2.0 | 0.00 | 0.00 | 0.00 | 80 | 857.4 |
| 20260830102542 | 70 | 143 | 1.0 | 2.0 | 0.00 | 0.00 | 0.00 | 80 | 857.4 |
| 20260830102024 | 70 | 87 | 1.0 | 2.0 | 0.00 | 0.00 | 0.00 | 80 | 857.4 |
| 20260830101523 | 71 | 103 | 1.0 | 1.0 | 0.00 | 0.00 | 0.00 | 80 | 857.4 |
| 20260830101039 | 71 | 111 | 1.0 | 2.0 | 0.00 | 0.00 | 0.00 | 80 | 857.4 |
| 20260830100546 | 71 | 119 | 1.0 | 1.0 | 0.00 | 0.00 | 0.00 | 79 | 857.5 |
| 20260830100023 | 71 | 94 | 1.0 | 2.0 | 0.00 | 0.00 | 0.00 | 79 | 857.5 |
| 20260830095524 | 71 | 116 | 1.0 | 2.0 | 0.00 | 0.00 | 0.00 | 79 | 857.5 |
| 20260830095024 | 71 | 91 | 1.0 | 2.0 | 0.00 | 0.00 | 0.00 | 78 | 857.5 |
| 20260830094522 | 71 | 167 | 1.0 | 2.0 | 0.00 | 0.00 | 0.00 | 78 | 857.5 |
| 20260830094024 | 72 | 120 | 1.0 | 2.0 | 0.00 | 0.00 | 0.00 | 78 | 857.5 |
| 20260830093544 | 72 | 141 | 2.0 | 3.0 | 0.00 | 0.00 | 0.00 | 77 | 857.5 |
| 20260830093044 | 72 | 158 | 1.0 | 2.0 | 0.00 | 0.00 | 0.00 | 77 | 857.5 |
| 20260830092524 | 72 | 122 | 1.0 | 3.0 | 0.00 | 0.00 | 0.00 | 77 | 857.5 |
| 20260830092022 | 72 | 105 | 1.0 | 2.0 | 0.00 | 0.00 | 0.00 | 77 | 857.5 |
| 20260830091522 | 71 | 165 | 1.0 | 2.0 | 0.00 | 0.00 | 0.00 | 78 | 857.5 |
| 20260830091023 | 71 | 90 | 1.0 | 2.0 | 0.00 | 0.00 | 0.00 | 78 | 857.5 |
| 20260830090522 | 71 | 101 | 1.0 | 2.0 | 0.00 | 0.00 | 0.00 | 78 | 857.5 |
| 20260830090024 | 71 | 138 | 1.0 | 1.0 | 0.00 | 0.00 | 0.00 | 78 | 857.5 |
| 20260830085524 | 71 | 154 | 1.0 | 1.0 | 0.00 | 0.00 | 0.00 | 79 | 857.5 |
| 20260830085024 | 71 | 108 | 1.0 | 2.0 | 0.00 | 0.00 | 0.00 | 79 | 857.5 |
| 20260830084522 | 71 | 141 | 1.0 | 1.0 | 0.00 | 0.00 | 0.00 | 79 | 857.5 |
| 20260830084023 | 71 | 119 | 1.0 | 2.0 | 0.00 | 0.00 | 0.00 | 79 | 857.5 |
| 20260830083525 | 71 | 131 | 1.0 | 2.0 | 0.00 | 0.00 | 0.00 | 80 | 857.5 |
| 20260830083027 | 71 | 104 | 1.0 | 2.0 | 0.00 | 0.00 | 0.00 | 80 | 857.5 |
| 20260830082525 | 71 | 101 | 1.0 | 2.0 | 0.00 | 0.00 | 0.00 | 81 | 857.5 |
| 20260830082023 | 71 | 164 | 1.0 | 2.0 | 0.00 | 0.00 | 0.00 | 81 | 857.5 |
| 20260830081608 | 71 | 133 | 1.0 | 2.0 | 0.00 | 0.00 | 0.00 | 81 | 857.5 |
| 20260830081103 | 71 | 165 | 1.0 | 3.0 | 0.00 | 0.00 | 0.00 | 80 | 857.5 |
| 20260830080546 | 71 | 158 | 1.0 | 2.0 | 0.00 | 0.00 | 0.00 | 80 | 857.5 |
| 20260830080024 | 71 | 126 | 1.0 | 3.0 | 0.00 | 0.00 | 0.00 | 80 | 857.5 |
| 20260830075543 | 71 | 115 | 1.0 | 2.0 | 0.00 | 0.00 | 0.00 | 80 | 857.5 |
| 20260830075028 | 71 | 142 | 1.0 | 2.0 | 0.00 | 0.00 | 0.00 | 80 | 857.5 |
| 20260830074525 | 71 | 163 | 1.0 | 2.0 | 0.00 | 0.00 | 0.00 | 80 | 857.5 |
| 20260830074024 | 71 | 146 | 1.0 | 1.0 | 0.00 | 0.00 | 0.00 | 80 | 857.5 |
| 20260830073524 | 72 | 204 | 0.0 | 1.0 | 0.00 | 0.00 | 0.00 | 80 | 857.5 |
| 20260830073024 | 72 | 174 | 1.0 | 1.0 | 0.00 | 0.00 | 0.00 | 79 | 857.5 |
| 20260830072524 | 72 | 189 | 1.0 | 1.0 | 0.00 | 0.00 | 0.00 | 79 | 857.5 |
| 20260830072024 | 72 | 189 | 1.0 | 1.0 | 0.00 | 0.00 | 0.00 | 79 | 857.5 |
| 20260830071524 | 72 | 180 | 1.0 | 2.0 | 0.00 | 0.00 | 0.00 | 78 | 857.5 |
| 20260830071024 | 72 | 185 | 1.0 | 1.0 | 0.00 | 0.00 | 0.00 | 78 | 857.5 |
| 20260830070526 | 72 | 145 | 1.0 | 1.0 | 0.00 | 0.00 | 0.00 | 78 | 857.5 |
| 20260830070026 | 72 | 132 | 1.0 | 1.0 | 0.00 | 0.00 | 0.00 | 78 | 857.5 |
| 20260830065524 | 72 | 124 | 1.0 | 2.0 | 0.00 | 0.00 | 0.00 | 78 | 857.5 |
| 20260830065045 | 72 | 164 | 1.0 | 1.0 | 0.00 | 0.00 | 0.00 | 78 | 857.5 |
| 20260830064527 | 72 | 153 | 1.0 | 2.0 | 0.00 | 0.00 | 0.00 | 77 | 857.5 |
| 20260830064027 | 72 | 158 | 1.0 | 1.0 | 0.00 | 0.00 | 0.00 | 77 | 857.5 |
| 20260830063525 | 72 | 164 | 1.0 | 1.0 | 0.00 | 0.00 | 0.00 | 78 | 857.5 |
| 20260830063027 | 72 | 116 | 1.0 | 2.0 | 0.00 | 0.00 | 0.00 | 78 | 857.5 |
| 20260830062525 | 72 | 161 | 1.0 | 1.0 | 0.00 | 0.00 | 0.00 | 78 | 857.5 |
| 20260830062045 | 72 | 168 | 1.0 | 1.0 | 0.00 | 0.00 | 0.00 | 78 | 857.5 |
| 20260830061647 | 72 | 160 | 1.0 | 1.0 | 0.00 | 0.00 | 0.00 | 78 | 857.5 |
| 20260830061026 | 72 | 99 | 1.0 | 2.0 | 0.00 | 0.00 | 0.00 | 78 | 857.5 |
| 20260830060526 | 72 | 131 | 1.0 | 1.0 | 0.00 | 0.00 | 0.00 | 78 | 857.5 |
| 20260830060109 | 72 | 145 | 1.0 | 1.0 | 0.00 | 0.00 | 0.00 | 78 | 857.5 |
| 20260830055527 | 72 | 161 | 1.0 | 2.0 | 0.00 | 0.00 | 0.00 | 78 | 857.5 |
| 20260830055027 | 72 | 225 | 1.0 | 1.0 | 0.00 | 0.00 | 0.00 | 77 | 857.5 |
| 20260830054546 | 72 | 220 | 1.0 | 1.0 | 0.00 | 0.00 | 0.00 | 77 | 857.5 |
| 20260830054026 | 72 | 232 | 1.0 | 1.0 | 0.00 | 0.00 | 0.00 | 77 | 857.5 |
| 20260830053528 | 0 | 234 | 1.0 | 1.0 | 0.00 | 0.00 | 0.00 | ||
| 20260830053029 | 72 | 180 | 1.0 | 1.0 | 0.00 | 0.00 | 0.00 | 77 | 857.5 |
| 20260830052550 | 72 | 188 | 1.0 | 1.0 | 0.00 | 0.00 | 0.00 | 77 | 857.5 |
| 20260830052028 | 72 | 139 | 1.0 | 1.0 | 0.00 | 0.00 | 0.00 | 78 | 857.5 |
| 20260830051531 | 72 | 121 | 1.0 | 1.0 | 0.00 | 0.00 | 0.00 | 78 | 857.5 |
| 20260830051050 | 72 | 195 | 1.0 | 1.0 | 0.00 | 0.00 | 0.00 | 78 | 857.5 |